[[{"header":{"parameterUnit":"m.s-1","parameterCategory":1,"la1":30.2991,"la2":30.254,"lo1":-89.0895,"lo2":-89.0444,"dy":0.0017,"dx":0.0017,"nx":28,"ny":28,"refTime":"2025-08-05T03:00:00:Z","depth":0,"parameterNumber":2,"parameterNumberName":"U-component_of_WINDS"},"data":[0,0,0,0,0,0,0,0,0,0,0,0,0,0,0,0,0,0,0,0,0,0,0,0,0,0,0,0,0,0,0,0,0,0,0,0,0,0,0,0,0,0,0,0,0,0,0,0,0,0,0,0,0,0,0,0,0,0,-1.1563,-1.1563,0,-1.1608,-1.1608,-1.1609,-1.1605,-1.1604,-1.1604,-1.1603,-1.1648,-1.165,-1.1652,0,0,0,0,0,0,0,0,0,0,0,0,0,-1.1475,-1.1476,-1.1563,-1.1564,-1.1564,-1.1607,-1.1608,-1.1609,-1.1605,-1.1604,-1.1604,-1.1603,-1.1648,-1.165,-1.1652,0,0,0,0,0,0,0,0,0,0,0,0,0,-1.1516,-1.1477,-1.1563,-1.1568,-1.1568,-1.1607,-1.1608,-1.1609,-1.1605,-1.1604,-1.1603,-1.1602,-1.1647,-1.1649,-1.1652,-1.1689,0,0,-1.166,-1.1662,0,0,0,0,0,0,0,0,-1.1513,-1.1519,-1.1566,-1.1567,-1.1568,-1.16,-1.1594,-1.1636,-1.1606,-1.1591,-1.1603,-1.1602,-1.1633,-1.1637,-1.1647,-1.1691,-1.1693,-1.1661,-1.1662,-1.1664,-1.1664,0,0,0,0,0,0,0,-1.151,-1.1517,-1.1581,-1.1567,-1.1568,-1.1567,-1.1572,-1.1601,-1.1617,-1.1592,-1.1592,-1.1598,-1.1633,-1.1645,-1.1648,-1.1694,-1.1661,-1.1663,-1.1665,-1.1666,-1.1771,-1.1772,0,0,0,0,0,0,-1.1507,-1.1515,-1.1579,-1.1582,-1.1538,-1.157,-1.1575,-1.1591,-1.1617,-1.162,-1.1598,-1.1597,-1.164,-1.1645,-1.165,-1.1695,-1.1664,-1.1666,-1.1668,-1.177,-1.1772,-1.1773,0,0,0,0,0,0,-1.1505,-1.1512,-1.1577,-1.1548,-1.1556,-1.1572,-1.159,-1.1592,-1.1603,-1.1621,-1.1624,-1.1607,-1.164,-1.1646,-1.168,-1.1697,-1.1667,-1.167,-1.1769,-1.1771,-1.1772,-1.1787,0,0,0,0,0,0,-1.1502,-1.1512,-1.1526,-1.1549,-1.1558,-1.1607,-1.1591,-1.1594,-1.1608,-1.1607,-1.163,-1.1633,-1.1639,-1.1676,-1.1682,-1.17,-1.1672,-1.1767,-1.177,-1.1772,-1.1785,-1.1789,-1.1792,0,0,0,0,0,-1.1499,-1.1528,-1.1527,-1.1534,-1.1576,-1.1607,-1.1613,-1.162,-1.161,-1.1624,-1.1636,-1.1632,-1.1694,-1.1679,-1.1687,-1.1705,-1.1766,-1.1769,-1.1772,-1.1783,-1.1788,-1.1792,0,0,0,0,0,0,-1.1506,-1.1531,-1.153,-1.1567,-1.1585,-1.1607,-1.1625,-1.1624,-1.1646,-1.1644,-1.1651,-1.1657,-1.1691,-1.1701,-1.1684,-1.1743,-1.1729,-1.1733,-1.1735,-1.174,-1.1743,-1.174,-1.1674,0,0,0,0,0,-1.1512,-1.1536,-1.1556,-1.1587,-1.1596,-1.1609,-1.1623,-1.1627,-1.1646,-1.1654,-1.1668,-1.1686,-1.171,-1.1725,-1.1748,-1.1786,-1.1791,-1.1803,-1.1807,-1.1809,-1.1813,-1.1835,-1.1841,-1.1781,-1.1781,-1.1781,0,0,-1.1525,-1.1541,-1.1555,-1.1589,-1.1603,-1.1628,-1.1616,-1.1642,-1.166,-1.1657,-1.169,-1.1701,-1.1723,-1.1759,-1.1776,-1.1769,-1.1831,-1.1813,-1.1815,-1.1817,-1.1838,-1.1844,-1.1849,-1.1783,-1.1783,-1.1783,0,0,-1.156,-1.1575,-1.1602,-1.1617,-1.164,-1.1648,-1.1655,-1.1677,-1.1685,-1.1718,-1.1717,-1.1738,-1.1779,-1.1794,-1.1807,-1.185,-1.1848,-1.1857,-1.1876,-1.1897,-1.1902,-1.1906,-1.1922,-1.1927,-1.186,-1.186,-1.186,0,-1.1573,-1.1609,-1.1616,-1.1643,-1.1658,-1.1657,-1.1685,-1.17,-1.1728,-1.1739,-1.1731,-1.1782,-1.1796,-1.1837,-1.1847,-1.1857,-1.1866,-1.1854,-1.1901,-1.1905,-1.1909,-1.1924,-1.193,-1.1861,-1.1861,-1.1861,-1.1861,0,-1.1624,-1.165,-1.1669,-1.1698,-1.1714,-1.1742,-1.1753,-1.1769,-1.1772,-1.1781,-1.1815,-1.1833,-1.1859,-1.1869,-1.1871,-1.191,-1.1905,-1.1899,-1.1885,-1.1915,-1.193,-1.1935,-1.1863,-1.1862,-1.1862,-1.1862,0,0,-1.1665,-1.1697,-1.1704,-1.1718,-1.1743,-1.1763,-1.179,-1.1816,-1.1831,-1.185,-1.1874,-1.1908,-1.1903,-1.1918,-1.1922,-1.1941,-1.1974,-1.1932,-1.1933,-1.194,-1.2018,-1.2023,-1.203,-1.1973,-1.1974,-1.1974,-1.2017,0,-1.1703,-1.1752,-1.1759,-1.1802,-1.1826,-1.1827,-1.1851,-1.1869,-1.1878,-1.19,-1.1911,-1.1936,-1.1926,-1.1935,-1.1954,-1.1966,-1.199,-1.1963,-1.1995,-1.1996,-1.199,-1.2037,-1.2042,-1.2081,-1.2022,-1.2023,-1.2024,0,-1.1754,-1.1776,-1.1822,-1.1845,-1.1855,-1.1876,-1.1901,-1.1922,-1.1943,-1.1949,-1.1966,-1.1968,-1.1997,-1.1981,-1.2021,-1.2003,-1.2016,-1.2024,-1.2026,-1.2029,-1.2012,-1.2042,-1.2093,-1.21,-1.2032,-1.2032,-1.2031,0,-1.1781,-1.1821,-1.1854,-1.1865,-1.1892,-1.1907,-1.1919,-1.1939,-1.1955,-1.1977,-1.1987,-1.2012,-1.2025,-1.2045,-1.2053,-1.2041,-1.2093,-1.2078,-1.2099,-1.2099,-1.211,-1.2109,-1.2165,-1.2118,-1.2118,-1.2118,-1.2118,0,-1.1823,-1.1851,-1.1866,-1.1887,-1.1918,-1.1926,-1.1957,-1.1969,-1.1986,-1.2009,-1.201,-1.2031,-1.2042,-1.2065,-1.2072,-1.2104,-1.211,-1.2116,-1.2117,-1.2116,-1.2115,-1.2125,-1.2123,-1.212,-1.2119,-1.2119,-1.2119,0,-1.1858,-1.1869,-1.1905,-1.1928,-1.1934,-1.1956,-1.1976,-1.1996,-1.2005,-1.2034,-1.2041,-1.2057,-1.2084,-1.2094,-1.2127,-1.2132,-1.2169,-1.2169,-1.2163,-1.2163,-1.2184,-1.2182,-1.2248,-1.2257,-1.2204,-1.2204,-1.2205,0,-1.1884,-1.1906,-1.1931,-1.1946,-1.1959,-1.1983,-1.2,-1.2009,-1.2025,-1.2051,-1.2068,-1.2095,-1.2117,-1.216,-1.2174,-1.22,-1.22,-1.2221,-1.2204,-1.2202,-1.2201,-1.22,-1.2202,-1.2224,-1.2225,-1.2225,-1.2226,0,-1.193,-1.1935,-1.1958,-1.1983,-1.2003,-1.2023,-1.2043,-1.2055,-1.2067,-1.2086,-1.2114,-1.2131,-1.2165,-1.2192,-1.2218,-1.2231,-1.2231,-1.2231,-1.2237,-1.2236,-1.2232,-1.2235,-1.2172,-1.223,-1.2229,-1.2229,-1.2229,-1.2229,-1.1962,-1.1981,-1.2003,-1.2029,-1.2044,-1.2063,-1.2083,-1.2096,-1.2119,-1.2147,-1.2151,-1.2181,-1.2202,-1.2237,-1.2251,-1.2275,-1.2269,-1.2278,-1.228,-1.2283,-1.2284,-1.2228,-1.2279,-1.2279,-1.2279,-1.2279,-1.2279,0,-1.2009,-1.2022,-1.2046,-1.2074,-1.2095,-1.2093,-1.2115,-1.2132,-1.2159,-1.2178,-1.22,-1.2232,-1.2259,-1.2275,-1.2302,-1.2317,-1.2318,-1.2324,-1.2323,-1.2326,-1.2287,-1.228,-1.2323,-1.2323,-1.2323,-1.2323,-1.2323,-1.2323,-1.2035,-1.2069,-1.2076,-1.2117,-1.2131,-1.216,-1.2173,-1.219,-1.2206,-1.2242,-1.2264,-1.2275,-1.2293,-1.2321,-1.2346,-1.235,-1.236,-1.2366,-1.237,-1.2334,-1.2329,-1.2325,-1.2317,-1.2368,-1.2368,-1.2407,-1.2408,-1.2408]},{"header":{"parameterUnit":"m.s-1","parameterCategory":1,"la1":30.2991,"la2":30.254,"lo1":-89.0895,"lo2":-89.0444,"dy":0.0017,"dx":0.0017,"nx":28,"ny":28,"refTime":"2025-08-05T03:00:00:Z","depth":0,"parameterNumber":3,"parameterNumberName":"V-component_of_WINDS"},"data":[0,0,0,0,0,0,0,0,0,0,0,0,0,0,0,0,0,0,0,0,0,0,0,0,0,0,0,0,0,0,0,0,0,0,0,0,0,0,0,0,0,0,0,0,0,0,0,0,0,0,0,0,0,0,0,0,0,0,-0.0805,-0.0806,0,-0.0865,-0.0865,-0.0866,-0.0952,-0.0954,-0.0955,-0.0957,-0.1016,-0.1016,-0.1016,0,0,0,0,0,0,0,0,0,0,0,0,0,-0.0765,-0.0766,-0.0805,-0.0806,-0.0807,-0.0865,-0.0865,-0.0866,-0.0952,-0.0954,-0.0956,-0.0958,-0.1016,-0.1016,-0.1016,0,0,0,0,0,0,0,0,0,0,0,0,0,-0.0799,-0.0766,-0.0805,-0.0857,-0.0862,-0.0864,-0.0866,-0.0867,-0.0952,-0.0954,-0.0956,-0.0958,-0.1015,-0.1016,-0.1016,-0.0972,0,0,-0.1017,-0.1017,0,0,0,0,0,0,0,0,-0.0797,-0.0801,-0.0848,-0.0853,-0.0859,-0.0904,-0.0873,-0.0902,-0.0951,-0.0918,-0.0957,-0.0959,-0.0976,-0.098,-0.0986,-0.0975,-0.0978,-0.1017,-0.1017,-0.1017,-0.1017,0,0,0,0,0,0,0,-0.0795,-0.0799,-0.0829,-0.0849,-0.0855,-0.0877,-0.0884,-0.0879,-0.0933,-0.0921,-0.0927,-0.0933,-0.098,-0.0986,-0.0988,-0.0978,-0.1017,-0.1017,-0.1017,-0.1017,-0.0936,-0.0934,0,0,0,0,0,0,-0.0785,-0.0796,-0.0827,-0.0831,-0.0833,-0.0875,-0.0884,-0.0887,-0.0934,-0.0943,-0.0931,-0.0937,-0.0984,-0.0988,-0.099,-0.0943,-0.1017,-0.1017,-0.1017,-0.0938,-0.0935,-0.0933,0,0,0,0,0,0,-0.0784,-0.0787,-0.0825,-0.0815,-0.0822,-0.0874,-0.0877,-0.0887,-0.0893,-0.0942,-0.0952,-0.0927,-0.0986,-0.099,-0.0977,-0.0946,-0.1017,-0.1018,-0.0941,-0.0937,-0.0934,-0.0847,0,0,0,0,0,0,-0.0782,-0.0786,-0.077,-0.0814,-0.0822,-0.0809,-0.0875,-0.0886,-0.0893,-0.0902,-0.0941,-0.0949,-0.0988,-0.0976,-0.0977,-0.0948,-0.1018,-0.0944,-0.0939,-0.0935,-0.0853,-0.0841,-0.0831,0,0,0,0,0,-0.0781,-0.0742,-0.0769,-0.0772,-0.0803,-0.0808,-0.0812,-0.0858,-0.0891,-0.0875,-0.0907,-0.0948,-0.095,-0.0974,-0.0976,-0.0946,-0.0946,-0.094,-0.0935,-0.0857,-0.0843,-0.0831,0,0,0,0,0,0,-0.0692,-0.0749,-0.0779,-0.0754,-0.0775,-0.0822,-0.0804,-0.0841,-0.0853,-0.086,-0.0916,-0.0924,-0.0903,-0.0924,-0.095,-0.0907,-0.0954,-0.0949,-0.0894,-0.0881,-0.087,-0.0865,-0.1018,0,0,0,0,0,-0.067,-0.067,-0.0719,-0.0692,-0.0702,-0.0751,-0.0754,-0.0788,-0.0812,-0.0822,-0.0852,-0.0873,-0.0879,-0.0881,-0.0889,-0.0857,-0.0866,-0.0837,-0.0826,-0.0817,-0.0812,-0.0796,-0.0784,-0.0916,-0.0916,-0.0916,0,0,-0.0624,-0.0655,-0.0651,-0.0675,-0.0696,-0.0694,-0.0758,-0.0752,-0.0751,-0.0821,-0.081,-0.0833,-0.0861,-0.0838,-0.0829,-0.0854,-0.0778,-0.081,-0.0803,-0.0802,-0.079,-0.0777,-0.0766,-0.0912,-0.0913,-0.0913,0,0,-0.0538,-0.0562,-0.0542,-0.0562,-0.0593,-0.0626,-0.0621,-0.0663,-0.0681,-0.0671,-0.0724,-0.0723,-0.0731,-0.0749,-0.0759,-0.0682,-0.0721,-0.0683,-0.0625,-0.061,-0.0599,-0.059,-0.0563,-0.0552,-0.0678,-0.0677,-0.0677,0,-0.0477,-0.0476,-0.0527,-0.0519,-0.0529,-0.0593,-0.0573,-0.059,-0.0621,-0.0626,-0.0654,-0.0666,-0.0689,-0.0671,-0.0653,-0.0659,-0.0655,-0.0678,-0.0597,-0.0588,-0.0581,-0.0555,-0.0544,-0.0673,-0.0673,-0.0674,-0.0674,0,-0.0399,-0.0397,-0.0378,-0.0408,-0.0415,-0.0401,-0.045,-0.0452,-0.0485,-0.0515,-0.0505,-0.0535,-0.055,-0.0549,-0.0581,-0.0536,-0.055,-0.0586,-0.0635,-0.0562,-0.0539,-0.053,-0.0666,-0.0667,-0.0669,-0.067,0,0,-0.0258,-0.0317,-0.0309,-0.0323,-0.0363,-0.0363,-0.0352,-0.0368,-0.0368,-0.0388,-0.038,-0.0386,-0.0421,-0.0432,-0.0467,-0.0454,-0.0391,-0.0492,-0.0493,-0.0471,-0.0343,-0.0314,-0.0302,-0.0417,-0.0416,-0.0414,-0.034,0,-0.0179,-0.0165,-0.0212,-0.0185,-0.0185,-0.0246,-0.0237,-0.026,-0.0288,-0.0292,-0.0323,-0.0327,-0.0372,-0.0379,-0.0368,-0.04,-0.0365,-0.0407,-0.041,-0.041,-0.04,-0.029,-0.026,-0.0188,-0.0331,-0.033,-0.0329,0,-0.0086,-0.0102,-0.0075,-0.0117,-0.0119,-0.0109,-0.0128,-0.0131,-0.0159,-0.018,-0.0194,-0.0235,-0.0228,-0.0275,-0.0265,-0.0292,-0.0297,-0.0313,-0.0311,-0.0313,-0.0364,-0.0287,-0.0167,-0.0156,-0.0315,-0.0316,-0.0317,0,0.0015,0.0,0.0014,0.0003,-0.0045,-0.0038,-0.0057,-0.0087,-0.0094,-0.0111,-0.0116,-0.013,-0.0138,-0.0149,-0.0193,-0.0224,-0.0179,-0.0229,-0.0196,-0.0195,-0.0182,-0.0182,-0.006,-0.0186,-0.0187,-0.0187,-0.0187,0,0.0108,0.0127,0.0058,0.0067,0.0086,0.0032,0.0052,0.0026,-0.0,0.0002,-0.0052,-0.0048,-0.0108,-0.0111,-0.0145,-0.0132,-0.0136,-0.0153,-0.0162,-0.0147,-0.0145,-0.015,-0.0156,-0.0184,-0.0185,-0.0185,-0.0186,0,0.0224,0.0179,0.019,0.0143,0.0131,0.0147,0.0107,0.0113,0.008,0.0084,0.0082,0.0032,0.0025,-0.0021,-0.0037,-0.0061,-0.0034,-0.0054,-0.0025,-0.0031,0.0005,0.0003,0.013,0.0144,0.0008,0.0009,0.001,0,0.0287,0.0299,0.0253,0.0251,0.0233,0.023,0.0222,0.0169,0.0163,0.0132,0.0142,0.0131,0.0119,0.0112,0.0074,0.0061,0.0041,0.0086,0.0039,0.0053,0.0042,0.0042,0.0043,0.0097,0.0099,0.01,0.0101,0,0.0403,0.0379,0.037,0.0353,0.0346,0.033,0.0311,0.0312,0.0253,0.0249,0.0242,0.0233,0.0215,0.0205,0.0185,0.0164,0.0124,0.0116,0.0123,0.0139,0.0155,0.0147,0.0004,0.0114,0.0113,0.0112,0.0111,0.0111,0.0494,0.0502,0.0471,0.0462,0.0442,0.0425,0.0428,0.0396,0.0388,0.037,0.0338,0.0335,0.0306,0.0275,0.0258,0.0254,0.0231,0.0241,0.0244,0.0247,0.0255,0.0155,0.0251,0.025,0.025,0.0249,0.0249,0,0.0608,0.0584,0.0577,0.0551,0.0544,0.0505,0.0482,0.0479,0.0476,0.0452,0.0442,0.0433,0.0422,0.0383,0.0368,0.0373,0.0354,0.0371,0.0371,0.0367,0.0277,0.0273,0.0387,0.0387,0.0387,0.0387,0.0387,0.0387,0.0666,0.0678,0.0651,0.0652,0.0628,0.0624,0.0614,0.0598,0.0578,0.0571,0.0561,0.0535,0.0505,0.0487,0.0476,0.0465,0.0462,0.0486,0.0469,0.0386,0.0373,0.036,0.0356,0.0485,0.0486,0.0558,0.0559,0.0559]}]]